Theta_e
322 324 325 319 307 306 299 300 304 302 303 308 308 307 305 307 303 300 321 328 335 336 342 345 347 350 351 351 351 350 350 346 345 345 344 342 341 339 340 341 341 341 342 342 346 350 351 350 350
323 320 322 314 303 299 298 301 300 303 306 307 307 307 306 304 311 313 317 328 335 335 340 344 343 347 348 351 350 350 349 347 345 344 344 342 341 340 342 342 344 343 342 343 347 350 350 349 349
318 317 314 308 303 297 298 301 303 304 305 305 305 306 306 305 309 312 323 327 334 334 339 342 338 343 347 348 349 349 349 348 345 344 343 342 341 342 344 345 348 346 345 344 348 349 349 348 349
317 315 310 303 297 300 300 303 303 304 305 305 304 303 307 311 309 315 324 327 331 333 336 338 336 341 343 346 348 348 348 347 345 343 342 342 343 343 347 347 348 348 347 345 349 348 348 346 347
315 310 304 300 298 301 303 303 302 302 303 304 303 302 303 309 312 314 321 326 329 331 333 336 334 338 342 344 346 347 346 346 345 345 344 345 346 346 346 345 345 347 347 346 349 348 346 345 345
309 308 301 298 298 300 303 304 302 302 303 304 301 302 304 308 309 314 319 324 329 330 331 334 332 335 339 342 346 346 345 345 344 343 344 344 344 345 344 344 344 345 348 349 348 347 345 344 343
306 305 300 298 298 299 301 302 302 303 303 304 303 301 307 308 312 313 317 323 328 329 330 332 336 335 333 338 340 342 342 341 342 342 341 342 342 342 343 343 344 345 348 349 346 345 344 343 342
309 305 298 299 298 298 302 302 302 302 303 302 303 302 304 307 312 315 318 321 324 327 329 330 334 335 338 340 334 335 338 338 338 338 337 335 335 336 337 336 339 344 345 346 344 342 342 341 338
307 303 299 298 297 300 302 301 304 303 302 303 303 303 306 307 310 312 313 317 321 323 325 329 332 335 337 338 337 332 332 333 333 333 330 329 336 337 336 335 336 341 340 341 341 341 339 333 330
305 302 299 301 302 302 303 301 301 301 304 303 304 307 307 307 307 306 306 307 310 314 320 325 329 332 335 336 338 340 339 337 336 335 334 334 334 336 336 329 329 333 333 336 340 338 330 326 326
302 301 300 301 302 302 302 302 301 301 301 302 300 303 305 307 305 303 303 304 305 308 313 318 324 329 330 334 335 337 339 338 337 336 335 334 333 334 336 338 337 338 325 328 330 328 325 324 322
299 301 300 301 301 301 300 301 301 299 302 303 304 305 307 302 300 300 300 302 303 304 306 310 316 323 328 329 332 332 335 337 336 336 335 333 332 333 334 334 334 332 326 322 325 323 322 322 320
299 300 299 300 299 299 299 300 298 300 302 306 306 305 302 298 298 300 301 302 303 303 306 306 310 317 323 328 328 331 330 333 335 334 334 332 330 330 332 331 330 329 325 322 325 320 321 320 320
299 299 299 298 298 297 298 299 298 300 304 302 303 300 298 297 298 298 298 299 301 303 305 308 308 312 318 323 328 327 329 331 333 332 332 331 330 330 330 330 328 329 325 322 321 320 320 318 319
297 296 300 299 299 296 298 297 296 302 302 299 300 298 297 297 298 297 298 299 301 303 305 307 309 312 314 318 323 326 327 327 329 331 330 329 330 330 329 329 327 328 327 323 319 318 319 318 319
296 297 293 299 298 296 299 292 299 301 298 298 297 296 295 296 296 298 298 298 299 301 301 303 308 313 316 316 320 324 324 325 326 329 330 328 328 329 328 326 325 328 324 319 319 319 317 317 319
297 291 291 293 298 296 297 294 299 298 297 295 294 293 293 294 295 297 297 297 298 298 299 300 303 306 310 319 318 319 322 323 324 325 329 327 327 327 327 324 324 324 322 320 317 318 317 315 319
291 291 291 291 295 296 295 295 297 295 294 292 292 292 292 293 294 296 295 296 297 297 297 299 301 303 306 312 320 319 321 321 323 322 323 323 325 324 324 322 320 320 319 316 316 318 319 318 317
293 292 291 293 296 294 293 293 292 293 290 290 290 289 290 291 295 296 294 295 295 297 296 297 299 302 306 307 310 313 314 320 320 321 321 321 320 322 322 320 317 318 316 316 315 316 315 313 313
293 290 290 293 295 291 291 289 290 291 287 288 289 288 289 290 293 293 293 293 294 296 295 296 298 300 305 306 307 309 311 315 320 321 320 320 319 319 320 318 316 316 315 313 313 313 311 310 312
291 289 290 288 290 292 289 287 288 289 288 288 288 289 289 289 289 291 290 291 293 294 294 295 296 299 303 303 303 304 307 310 313 318 318 318 319 317 318 317 316 315 315 314 313 312 311 309 311
287 291 289 286 285 282 288 279 287 288 286 285 286 287 287 288 288 289 289 290 292 293 295 294 295 298 302 303 299 297 299 302 306 310 318 318 317 318 317 317 316 315 315 316 313 313 312 312 308
290 289 287 286 285 284 284 281 286 290 283 282 285 286 287 287 288 288 289 290 291 294 294 294 294 297 299 301 299 297 296 299 304 306 312 316 316 317 315 316 316 314 315 316 314 314 313 312 309
288 287 287 286 285 279 281 278 281 282 279 282 285 286 286 286 287 288 289 290 291 293 293 295 293 293 296 297 299 296 296 297 299 302 305 314 315 315 315 315 315 314 314 315 313 313 314 311 310
286 284 278 277 279 278 281 277 280 281 282 283 283 284 285 286 286 287 287 289 290 291 291 292 291 291 292 293 296 297 296 296 297 301 303 306 313 313 313 314 314 313 313 312 311 311 309 311 310
284 284 277 270 273 275 279 274 280 283 284 285 285 284 285 285 286 286 288 289 289 290 291 291 291 291 292 292 294 297 296 296 297 298 301 305 304 314 315 313 314 314 313 312 311 313 310 310 310
284 280 282 275 274 272 276 279 283 283 283 283 283 283 283 283 285 286 287 288 288 289 290 290 290 291 292 292 293 296 296 295 295 296 297 297 304 306 314 313 313 313 313 312 312 311 309 310 311
281 283 276 277 268 267 274 275 276 278 279 281 280 281 282 284 285 286 286 287 288 289 289 289 289 289 291 292 293 295 296 296 295 294 295 295 298 303 308 312 312 312 312 311 310 311 311 309 310
278 276 276 275 274 268 267 273 280 279 280 279 280 281 282 284 285 285 286 287 287 287 286 286 286 287 289 291 292 293 295 296 295 295 295 295 296 294 298 311 311 311 310 309 307 307 308 305 306
279 278 276 271 269 272 271 270 282 281 281 281 280 281 283 284 284 284 284 284 282 280 279 278 279 280 282 284 286 292 293 295 295 295 294 295 294 294 296 304 310 309 308 308 306 304 302 302 301
Wind_Speed
2 3 2 4 4 3 3 4 3 2 3 1 1 4 6 8 7 10 2 4 6 5 9 10 7 9 11 12 11 11 11 12 12 12 11 11 11 10 10 11 11 12 12 12 13 14 17 17 17
2 2 2 1 3 2 5 2 3 5 3 2 4 7 8 13 9 9 6 4 9 6 9 10 8 9 11 12 12 11 12 13 13 12 12 12 12 12 12 13 13 14 13 14 15 15 17 17 16
1 2 3 0 1 4 3 2 6 4 4 4 4 3 6 5 3 5 5 3 9 6 7 8 6 9 12 12 11 12 12 13 13 13 13 13 13 14 14 13 14 14 15 16 17 17 17 17 18
2 3 3 2 3 3 2 5 5 6 1 4 3 10 3 8 4 2 6 2 7 7 7 7 8 10 12 13 13 13 13 13 13 13 14 14 15 13 13 12 12 14 16 18 17 18 18 18 18
0 3 2 1 1 0 3 3 3 4 4 4 3 6 6 2 6 9 7 4 9 9 7 8 8 11 12 13 14 14 15 14 14 14 13 14 13 12 11 11 12 14 17 18 16 18 18 19 18
2 2 3 3 3 2 3 2 3 4 4 4 4 7 6 1 5 5 7 8 8 9 8 9 9 9 12 13 12 14 15 15 14 14 13 13 14 13 12 13 12 13 17 18 16 19 20 20 20
1 2 1 1 2 2 2 2 4 8 9 8 2 7 5 6 7 8 7 8 8 9 9 9 10 11 11 11 9 11 13 13 13 13 13 12 12 12 12 11 10 14 17 17 18 19 21 21 22
1 3 4 3 1 2 3 2 3 4 8 2 3 6 14 12 11 8 6 9 9 10 11 12 11 11 12 13 12 10 11 11 11 11 10 10 9 10 10 8 9 12 16 18 21 22 22 21 18
1 2 2 1 2 5 1 6 2 2 8 4 3 6 14 15 13 12 10 11 11 11 13 12 13 12 13 13 12 11 11 11 11 10 11 9 9 11 11 8 4 9 14 19 22 23 23 23 16
2 2 3 1 2 7 12 5 8 5 12 4 8 12 13 18 16 16 17 16 16 16 14 13 14 14 14 11 13 14 13 12 12 13 13 11 11 9 7 2 2 2 8 14 24 26 25 16 7
0 3 3 1 3 5 10 10 1 7 9 13 14 18 19 18 20 20 20 20 20 19 15 16 15 16 14 12 9 8 7 9 9 15 14 12 8 6 6 4 4 5 10 1 1 11 10 12 7
5 3 3 1 1 5 10 8 8 5 10 10 11 12 18 21 21 24 22 23 24 22 20 18 17 16 16 9 10 9 8 10 10 12 15 10 8 8 7 5 5 7 5 5 3 6 8 8 9
3 4 2 3 6 7 7 6 3 2 8 13 19 18 19 20 21 21 20 21 22 24 23 21 17 15 16 15 9 11 8 10 12 12 14 11 10 8 7 7 6 7 7 7 8 8 10 6 9
2 9 12 2 5 1 5 5 5 7 13 19 15 16 17 18 19 19 23 23 23 22 24 23 19 16 15 16 16 10 10 12 12 12 13 16 11 9 9 8 7 10 8 6 8 9 8 12 7
3 8 5 6 4 5 5 4 2 6 18 15 14 15 16 17 18 21 21 21 23 20 22 23 21 17 15 15 16 12 9 9 10 13 16 16 14 13 12 9 9 11 11 11 9 8 9 8 9
3 3 6 6 5 7 10 9 12 15 16 15 13 14 15 17 17 19 21 23 23 23 24 22 19 20 16 13 11 10 9 9 10 10 12 17 16 15 13 11 8 9 11 9 8 10 9 10 12
2 9 14 12 1 3 5 14 11 17 13 13 13 13 13 13 17 20 23 23 24 23 24 23 22 20 21 16 10 10 13 11 10 10 12 17 17 16 13 10 9 11 10 11 10 10 13 10 10
12 10 10 19 5 12 8 12 18 12 16 12 11 13 16 17 16 18 23 22 23 24 25 21 18 21 20 14 12 8 11 10 10 9 10 14 13 14 13 9 11 11 10 10 9 13 10 13 10
8 12 20 19 17 11 13 17 19 10 11 12 13 15 16 16 13 17 20 20 22 20 23 24 21 21 17 13 12 12 10 11 10 9 15 15 13 15 14 10 12 12 13 14 13 11 13 9 11
11 16 18 11 5 13 19 16 6 12 13 12 11 17 18 18 17 19 24 24 22 20 23 22 21 19 15 13 13 11 12 13 12 11 13 14 15 16 14 13 13 14 12 14 13 12 8 5 11
13 10 11 15 17 16 15 11 4 13 9 12 12 15 18 21 21 22 24 25 20 19 21 21 23 21 16 15 11 13 15 12 12 10 10 12 15 16 17 16 14 15 14 14 17 14 13 10 8
10 7 12 18 20 15 16 10 5 13 6 12 13 16 19 23 25 24 26 26 24 20 19 22 21 21 16 17 11 12 12 16 14 13 11 13 17 19 17 18 16 16 13 17 16 16 13 13 13
4 11 13 20 22 14 3 7 3 11 8 15 16 17 21 26 27 27 27 25 26 20 21 20 22 21 20 18 15 9 10 12 14 14 17 16 15 17 18 18 19 17 13 17 19 18 17 12 13
8 9 21 9 6 6 10 5 8 6 5 11 16 21 26 29 28 27 27 26 23 21 21 19 21 22 20 20 21 16 13 13 14 17 14 12 12 13 18 18 18 18 17 19 18 18 20 14 11
8 10 8 6 3 7 8 10 8 9 7 12 18 24 29 28 25 26 28 25 24 25 25 22 22 23 24 23 22 20 13 15 15 18 13 12 11 11 17 20 20 18 19 19 18 18 15 15 13
2 2 3 8 7 18 15 8 3 9 8 13 18 24 25 25 26 27 27 25 25 26 25 26 23 24 23 22 22 20 18 8 9 11 14 14 8 14 20 21 20 22 23 21 20 16 16 14 12
6 5 4 5 3 7 7 5 11 8 14 16 22 25 24 27 27 29 29 27 26 27 26 27 27 25 23 22 20 20 17 13 8 11 13 12 16 13 20 23 20 22 23 23 22 16 19 18 17
3 5 3 3 5 9 11 19 8 14 16 25 29 27 27 28 30 29 31 29 28 26 26 26 27 26 25 21 19 18 18 18 11 8 11 12 15 17 19 24 23 22 22 22 22 18 20 20 16
5 5 2 1 4 5 9 9 7 14 12 28 27 27 28 30 30 29 29 28 27 26 24 25 25 27 24 21 20 20 18 17 14 12 10 8 13 16 13 21 24 23 22 23 22 20 20 21 19
8 8 7 4 6 9 8 16 12 4 22 23 25 26 28 31 30 30 28 26 25 27 27 27 26 26 26 25 26 23 20 17 16 14 13 8 11 14 18 21 24 24 24 22 23 21 20 22 20
Wind_Direction
151 128 192 218 224 249 59 74 324 258 254 188 171 241 290 297 277 296 83 242 202 198 186 186 205 190 194 195 196 193 191 200 210 209 208 211 213 218 225 226 219 232 237 240 234 206 188 187 176
141 164 204 214 287 29 74 43 311 346 339 312 256 248 261 282 266 280 281 200 195 207 195 196 180 206 208 203 200 205 205 204 209 211 214 216 214 216 221 225 222 225 231 234 231 208 186 185 171
132 289 243 243 32 36 12 10 327 328 292 250 272 278 303 259 253 287 2 327 194 207 204 203 195 214 209 211 218 215 208 205 208 219 219 220 221 222 224 223 229 223 226 228 232 201 186 180 162
239 186 148 277 48 108 333 0 326 314 131 213 286 284 235 265 293 287 342 288 217 210 218 191 211 216 223 221 216 218 215 209 213 215 221 225 223 224 224 223 229 226 224 223 222 197 180 176 154
249 246 193 146 69 282 241 298 286 294 298 253 216 298 272 238 277 281 286 251 226 220 214 222 223 225 226 228 232 222 213 215 216 215 219 232 237 229 224 228 234 232 223 219 213 188 180 171 148
228 287 248 335 10 341 284 263 279 282 291 278 244 276 260 284 287 315 256 252 246 238 229 223 220 235 229 232 237 220 218 216 220 227 222 229 233 226 225 232 243 236 216 210 195 176 174 159 140
314 283 335 251 308 284 124 192 280 336 306 318 285 276 303 311 0 317 273 255 244 251 249 235 227 224 231 234 227 217 208 219 217 219 226 221 223 221 220 226 238 239 204 200 181 166 160 151 149
171 234 172 206 2 318 141 228 325 284 324 15 293 313 334 3 342 320 281 270 264 253 252 245 236 233 231 224 219 218 207 204 217 212 217 219 218 210 216 231 233 244 206 185 166 161 148 137 128
319 218 214 241 201 351 18 330 44 270 280 281 239 305 338 321 308 307 313 296 281 270 260 254 246 236 239 232 222 211 208 205 202 208 207 208 225 212 209 214 237 228 205 184 166 158 135 117 117
255 250 165 15 24 322 318 328 330 295 326 333 324 0 337 338 344 348 348 337 329 311 282 264 263 249 242 231 232 221 214 212 215 213 209 217 221 217 216 188 288 54 194 194 173 150 127 116 120
333 274 134 64 323 320 308 334 37 307 357 18 347 340 343 358 16 16 11 5 350 334 313 296 266 254 250 242 232 227 215 212 215 217 215 210 216 204 199 183 189 129 90 122 356 128 113 125 118
280 264 209 81 133 313 302 332 335 309 356 351 358 348 7 23 28 26 20 16 10 360 341 319 295 266 248 245 235 232 227 216 207 216 210 207 201 202 196 180 155 142 117 115 129 102 109 120 112
249 312 85 137 303 276 301 309 316 340 25 349 358 11 34 40 31 25 16 10 6 7 358 346 317 284 265 240 238 230 218 224 220 207 208 209 210 198 194 174 156 136 140 138 131 125 130 125 130
334 294 294 128 137 215 330 318 309 66 350 359 16 51 62 44 33 25 18 10 3 357 358 355 347 315 284 267 238 238 226 228 224 217 209 209 216 206 194 175 170 145 146 145 135 145 159 142 148
310 301 314 134 97 143 272 309 132 19 351 355 54 73 52 39 30 24 13 8 4 358 354 356 350 338 311 285 266 241 246 226 230 219 216 205 205 203 189 178 182 163 159 152 134 142 150 150 142
274 228 343 355 24 146 340 299 335 344 344 61 84 59 40 35 27 20 12 4 -0 357 356 353 352 347 333 303 272 259 246 237 238 228 217 211 201 200 195 185 176 173 164 161 150 153 144 162 156
25 321 327 326 3 49 342 296 321 352 31 86 67 53 37 25 22 17 8 4 1 357 350 346 346 345 341 317 290 262 255 241 230 240 228 212 204 198 191 186 171 170 161 167 172 168 155 155 162
307 311 308 309 292 343 306 283 318 22 99 89 66 38 23 13 19 10 2 358 355 353 351 348 343 341 338 331 313 276 252 242 230 228 226 221 205 192 193 182 169 173 164 162 174 176 165 156 152
296 296 303 311 330 338 326 317 332 81 86 71 52 29 13 4 7 358 357 352 347 354 354 346 346 342 339 334 332 321 293 255 231 225 222 225 203 196 187 177 170 177 170 168 172 161 163 147 146
308 305 308 306 322 333 318 322 74 109 79 57 46 17 12 4 355 352 352 346 346 345 350 346 342 339 340 339 324 324 313 295 245 225 221 210 206 194 188 178 179 174 174 163 164 164 151 142 174
310 309 318 305 318 293 331 298 114 126 76 44 40 15 10 6 353 345 347 344 339 339 342 338 333 330 332 335 336 335 326 313 290 227 215 214 204 194 186 183 181 176 175 169 163 168 176 162 184
299 355 310 312 320 313 342 286 325 181 53 27 18 8 2 356 351 347 344 345 341 331 335 328 328 324 324 328 327 338 319 310 307 290 224 213 207 205 185 183 177 177 181 179 174 171 176 170 168
334 330 307 301 293 312 289 241 193 231 2 5 4 357 353 351 346 341 340 336 327 327 330 320 323 315 319 314 312 315 310 307 303 299 282 207 204 205 190 182 171 180 185 181 176 177 174 181 168
320 328 306 292 281 247 129 347 247 347 33 1 356 354 349 344 336 333 331 329 324 316 323 312 310 311 309 310 304 307 307 314 311 301 293 262 200 196 192 186 179 179 181 181 180 181 180 176 193
359 351 317 305 269 282 169 324 312 101 46 14 358 352 338 333 331 324 325 323 318 318 317 310 302 303 301 306 300 300 306 310 312 306 300 274 252 187 188 187 184 179 179 178 176 179 183 173 179
110 169 239 278 302 296 294 220 166 141 22 10 357 342 329 329 326 320 321 318 315 315 310 308 300 298 293 298 296 291 296 296 305 318 319 299 281 226 188 187 184 182 175 177 176 183 174 178 183
145 217 35 271 201 277 253 235 189 41 352 349 337 334 330 330 324 322 319 314 313 310 307 307 302 298 290 291 292 284 282 281 284 301 297 314 301 303 200 182 185 183 177 176 179 183 176 179 185
274 103 163 180 277 287 282 297 271 355 342 336 337 334 333 328 324 323 318 314 311 311 308 306 301 299 293 289 284 280 276 280 275 281 286 300 312 292 295 186 183 183 177 173 178 181 183 177 185
160 176 143 9 254 265 296 287 32 342 341 335 330 331 330 322 321 315 313 315 319 316 325 334 329 323 313 292 281 275 272 269 278 280 271 281 307 318 310 214 187 182 178 174 176 178 179 180 182
233 195 179 194 218 237 290 277 302 279 340 327 325 326 324 317 319 317 319 317 326 323 315 316 312 309 305 303 313 285 270 263 263 270 276 283 286 292 282 278 186 186 177 177 175 174 176 179 183